Погода в Макаркине

Россия / Республика Марий Эл     56°09′39″N   46°15′29″E
темп.,
°C
ветер,
м/с
пор.,
м/с
влажн.,
%
обл.,
%
осадки,
мм/ч
давл.,
гПа
погр.,
м
13 апреля, вт
вт1300:00+4вюв3119690 0.0 1036241
03:00+3юв269769 0.0 1035105
06:00+5юв2899100 0.0 1034224
09:00+8ююв3797100 0.0 1034239
12:00+14ю477298 0.0 1033468
15:00+17ю475068 0.0 1031990
18:00+13ююв366719 0.0 1030101
21:00+10ю36745 0.0 103084
14 апреля, ср
ср1400:00+8ю347860 0.0 103050
03:00+7ю337770 0.0 102929
06:00+6ю237495 0.0 102940
09:00+13ю365462 0.0 1028326
12:00+17ю46425 0.0 1027935
15:00+18ю46360 0.0 10251228
18:00+15ююв23580 0.0 102341
21:00+10ююв35825 0.0 102378
15 апреля, чт
чт1500:00+9ю33864 0.0 102337
03:00+8ю22873 0.0 102220
06:00+8ю22854 0.0 102229
09:00+14ююз23620 0.0 1021366
12:00+17ююз22451 0.0 10201278
15:00+18юз22406 0.0 10181724
18:00+16зюз115215 0.0 101810
21:00+12ссз116099 0.0 101810
16 апреля, пт
пт1600:00+10ссв116798 0.0 101810
03:00+8ссв348046 0.0 101853
06:00+6ссв4994100 0.0 1019295
09:00+10ссв577253 0.0 1020523
12:00+13ссв566170 0.0 1020988
15:00+10ссв777194 0.0 1022883
18:00+8св5107265 0.0 1023749
21:00+5ссв24885 0.0 102479
17 апреля, сб
сб1700:00+3ссв39815 0.0 1025224
03:00+1ссв25800 0.0 102697
06:00+1с28764 0.0 1027249
09:00+5с69555 0.0 10281093
12:00+7ссв710405 0.0 10291810
15:00+7ссв711345 0.0 10292008
18:00+5ссв612360 0.0 10311685
21:00+2ссв410470 0.0 1033387